Frederick, MD

3:32 PM EDT on April 29, 2017 (GMT -0400)
Frederick Municipal

Weather History for KFDK - November, 2013

Change the Weather History Date:

Monday, November 4, 2013

  Actual Average (KHGR) Record (KHGR)
Temperature  
Mean Temperature 36 °F -  
Max Temperature 44 °F 55 °F 79 °F (2003)
Min Temperature 28 °F 38 °F 21 °F (2006)
Degree Days  
Heating Degree Days 29    
Moisture  
Dew Point 28 °F    
Average Humidity 78    
Maximum Humidity 100    
Minimum Humidity 49    
Precipitation  
Precipitation 0.00 in - - ()
Sea Level Pressure  
Sea Level Pressure 30.61 in    
Wind  
Wind Speed 4 mph (NNE)    
Max Wind Speed 8 mph    
Max Gust Speed -    
Visibility 10 miles    
Events Snow    
Averages and records for this station are not official NWS values.
T = Trace of Precipitation, MM = Missing Value Source: NWS Daily Summary

Daily Weather History Graph

Daily Weather History Graph

Search for Another Location

Airport or City:

Trip Planner

Search our weather history database for the weather conditions in past years. The results will help you decide how hot, cold, wet, or windy it might be!

Date:

Astronomy

Nov. 04, 2013 Rise Set
Actual Time 6:41 AM EST 5:04 PM EST
Civil Twilight 6:13 AM EST 5:32 PM EST
Nautical Twilight 5:41 AM EST 6:04 PM EST
Astronomical Twilight 5:09 AM EST 6:35 PM EST
Moon 7:49 AM EST (11/4) 6:07 PM EST (11/4)
Length of Visible Light 11h 19m
Length of Day
10h 23m
New Moon, 2% of the Moon is Illuminated
Nov 4
New Moon
Nov 10
First Quarter
Nov 17
Full
Nov 25
Last Quarter
Dec 2
New

Hourly Weather History & Observations

Time (EST) Temp. Windchill Dew Point Humidity Pressure Visibility Wind Dir Wind Speed Gust Speed Precip Events Conditions
12:00 AM 33.8 °F 27.7 °F 28.4 °F 81% 30.51 in 10.0 mi NNE 6.9 mph - N/A   Clear
12:20 AM 33.8 °F 27.0 °F 28.4 °F 81% 30.51 in 10.0 mi NNE 8.1 mph - N/A   Clear
12:40 AM 33.8 °F 28.6 °F 28.4 °F 81% 30.52 in 10.0 mi North 5.8 mph - N/A   Clear
1:00 AM 33.8 °F 27.7 °F 26.6 °F 75% 30.52 in 10.0 mi NNE 6.9 mph - N/A   Clear
1:20 AM 33.8 °F 27.7 °F 26.6 °F 75% 30.53 in 10.0 mi NNE 6.9 mph - N/A   Clear
1:40 AM 32.0 °F 25.6 °F 26.6 °F 80% 30.54 in 10.0 mi NNE 6.9 mph - N/A   Clear
2:00 AM 32.0 °F 26.4 °F 26.6 °F 80% 30.55 in 10.0 mi NNE 5.8 mph - N/A   Clear
2:20 AM 32.0 °F 25.6 °F 26.6 °F 80% 30.56 in 10.0 mi NNE 6.9 mph - N/A   Clear
2:40 AM 32.0 °F 27.5 °F 26.6 °F 80% 30.56 in 10.0 mi NNE 4.6 mph - N/A Snow Light Snow
3:00 AM 32.0 °F 26.4 °F 26.6 °F 80% 30.57 in 10.0 mi NNE 5.8 mph - N/A   Clear
3:20 AM 32.0 °F 25.6 °F 26.6 °F 80% 30.57 in 10.0 mi NNE 6.9 mph - N/A Snow Light Snow
3:40 AM 32.0 °F 26.4 °F 26.6 °F 80% 30.58 in 10.0 mi NNE 5.8 mph - N/A Snow Light Snow
4:00 AM 30.2 °F - 26.6 °F 86% 30.59 in 10.0 mi Calm Calm - N/A Snow Light Snow
4:20 AM 30.2 °F 25.4 °F 26.6 °F 86% 30.59 in 10.0 mi NE 4.6 mph - N/A   Clear
4:40 AM 30.2 °F 25.4 °F 26.6 °F 86% 30.60 in 10.0 mi NNE 4.6 mph - N/A   Clear
5:00 AM 30.2 °F 25.4 °F 26.6 °F 86% 30.59 in 10.0 mi NNE 4.6 mph - N/A   Clear
5:20 AM 30.2 °F 26.7 °F 24.8 °F 80% 30.59 in 10.0 mi NNE 3.5 mph - N/A   Clear
5:40 AM 30.2 °F - 24.8 °F 80% 30.61 in 10.0 mi Calm Calm - N/A   Clear
6:50 AM 28.4 °F - 24.8 °F 86% 30.64 in 10.0 mi Calm Calm - N/A   Clear
7:50 AM 32.0 °F 26.4 °F 26.6 °F 80% 30.64 in 10.0 mi NE 5.8 mph - N/A   Clear
8:50 AM 35.6 °F 29.9 °F 26.6 °F 70% 30.67 in 10.0 mi NNE 6.9 mph - N/A   Clear
9:47 AM 39.2 °F 35.0 °F 24.8 °F 56% 30.67 in 10.0 mi NNE 5.8 mph - N/A   Clear
10:50 AM 42.8 °F 41.1 °F 24.8 °F 49% 30.66 in 10.0 mi East 3.5 mph - N/A   Clear
11:45 AM 42.8 °F 40.1 °F 26.6 °F 53% 30.64 in 10.0 mi NNE 4.6 mph - N/A   Clear
12:50 PM 42.8 °F 40.1 °F 26.6 °F 53% 30.64 in 10.0 mi Variable 4.6 mph - N/A   Clear
1:45 PM 44.6 °F 43.1 °F 26.6 °F 49% 30.61 in 10.0 mi Variable 3.5 mph - N/A   Clear
2:55 PM 44.6 °F - 26.6 °F 49% 30.62 in 10.0 mi Calm Calm - N/A   Clear
3:50 PM 44.6 °F - 26.6 °F 49% 30.61 in 10.0 mi Calm Calm - N/A   Clear
4:50 PM 42.8 °F - 28.4 °F 57% 30.62 in 10.0 mi Calm Calm - N/A   Clear
5:50 PM 39.2 °F - 28.4 °F 65% 30.61 in 10.0 mi Calm Calm - N/A   Clear
6:45 PM 37.4 °F - 30.2 °F 75% 30.61 in 10.0 mi Calm Calm - N/A   Clear
7:55 PM 35.6 °F - 32.0 °F 87% 30.63 in 10.0 mi Calm Calm - N/A   Clear
8:00 PM 33.8 °F - 32.0 °F 93% 30.63 in 10.0 mi Calm Calm - N/A   Clear
8:20 PM 33.8 °F - 32.0 °F 93% 30.64 in 10.0 mi Calm Calm - N/A   Clear
8:40 PM 33.8 °F - 32.0 °F 93% 30.64 in 10.0 mi Calm Calm - N/A   Clear
9:00 PM 33.8 °F - 32.0 °F 93% 30.65 in 10.0 mi Calm Calm - N/A   Clear
9:20 PM 35.6 °F - 32.0 °F 87% 30.67 in 10.0 mi Calm Calm - N/A   Clear
9:40 PM 33.8 °F - 32.0 °F 93% 30.66 in 10.0 mi Calm Calm - N/A   Clear
10:00 PM 33.8 °F - 32.0 °F 93% 30.66 in 10.0 mi Calm Calm - N/A   Clear
10:20 PM 33.8 °F - 32.0 °F 93% 30.65 in 10.0 mi Calm Calm - N/A   Clear
10:40 PM 33.8 °F - 32.0 °F 93% 30.65 in 10.0 mi Calm Calm - N/A   Clear
11:00 PM 32.0 °F - 32.0 °F 100% 30.66 in 10.0 mi Calm Calm - N/A   Clear
11:20 PM 33.8 °F - 32.0 °F 93% 30.64 in 10.0 mi Calm Calm - N/A   Clear
11:40 PM 33.8 °F - 32.0 °F 93% 30.63 in 10.0 mi Calm Calm - N/A   Clear